Meteo pe oră la Abbiategrasso

Astăzi, 3 August, Marţi

Timp Temperatura Precipitaţii Vânt Presiune Umiditate
00:00 +19°C° 0.2 mm 1 m/s 750 mmHg 81%
01:00 +19°C° 0 mm 1 m/s 750 mmHg 87%
02:00 +18°C° 0.6 mm 1 m/s 750 mmHg 89%
03:00 +18°C° 0.6 mm 1 m/s 750 mmHg 92%
04:00 +18°C° 0.6 mm 1 m/s 750 mmHg 94%
05:00 +18°C° 0.2 mm 1 m/s 750 mmHg 93%
06:00 +17°C° 0.2 mm 0 m/s 750 mmHg 92%
07:00 +17°C° 0 mm 0 m/s 751 mmHg 91%
08:00 +21°C° 0.1 mm 1 m/s 751 mmHg 85%
09:00 +22°C° 0.1 mm 1 m/s 751 mmHg 80%
10:00 +23°C° 0.1 mm 1 m/s 751 mmHg 74%
11:00 +24°C° 0.2 mm 1 m/s 750 mmHg 70%
12:00 +25°C° 0.2 mm 1 m/s 750 mmHg 65%
13:00 +26°C° 0.2 mm 1 m/s 750 mmHg 61%
14:00 +27°C° 0.1 mm 1 m/s 749 mmHg 59%
15:00 +27°C° 0.1 mm 1 m/s 749 mmHg 58%
16:00 +27°C° 0.1 mm 1 m/s 748 mmHg 56%
17:00 +26°C° 0.3 mm 1 m/s 748 mmHg 63%
18:00 +25°C° 0.3 mm 1 m/s 748 mmHg 69%
19:00 +23°C° 0.3 mm 2 m/s 748 mmHg 76%
20:00 +22°C° 0.4 mm 1 m/s 748 mmHg 80%
21:00 +21°C° 0.4 mm 1 m/s 748 mmHg 84%
22:00 +20°C° 0.4 mm 1 m/s 749 mmHg 88%
23:00 +20°C° 0.1 mm 1 m/s 749 mmHg 89%

Mâine, 4 August, Miercuri

Timp Temperatura Precipitaţii Vânt Presiune Umiditate
00:00 +20°C° 0.1 mm 1 m/s 749 mmHg 90%
01:00 +20°C° 0.1 mm 1 m/s 749 mmHg 90%
02:00 +19°C° 0.2 mm 1 m/s 749 mmHg 91%
03:00 +19°C° 0.2 mm 1 m/s 748 mmHg 91%
04:00 +19°C° 0.2 mm 1 m/s 748 mmHg 92%
05:00 +19°C° 0.1 mm 1 m/s 748 mmHg 91%
06:00 +20°C° 0.1 mm 1 m/s 748 mmHg 90%
07:00 +18°C° 0.1 mm 0 m/s 748 mmHg 89%
08:00 +19°C° 0.1 mm 0 m/s 748 mmHg 86%
09:00 +22°C° 0.1 mm 1 m/s 749 mmHg 82%
10:00 +23°C° 0.1 mm 1 m/s 749 mmHg 79%
11:00 +22°C° 0.7 mm 1 m/s 748 mmHg 81%
12:00 +22°C° 0.7 mm 1 m/s 748 mmHg 84%
13:00 +22°C° 0.7 mm 1 m/s 747 mmHg 86%
14:00 +22°C° 4.5 mm 1 m/s 747 mmHg 89%
15:00 +20°C° 4.5 mm 2 m/s 747 mmHg 93%
16:00 +19°C° 4.5 mm 2 m/s 747 mmHg 97%
17:00 +19°C° 2.8 mm 2 m/s 747 mmHg 97%
18:00 +20°C° 2.8 mm 1 m/s 747 mmHg 97%
19:00 +20°C° 2.8 mm 1 m/s 747 mmHg 97%
20:00 +19°C° 0.4 mm 1 m/s 747 mmHg 97%
21:00 +19°C° 0.4 mm 1 m/s 747 mmHg 97%
22:00 +19°C° 0.4 mm 1 m/s 747 mmHg 97%
23:00 +19°C° 0.3 mm 1 m/s 747 mmHg 97%

Poimâine, 5 August, Joi

Timp Temperatura Precipitaţii Vânt Presiune Umiditate
00:00 +19°C° 0.3 mm 1 m/s 747 mmHg 96%
01:00 +19°C° 0.3 mm 1 m/s 746 mmHg 96%
02:00 +18°C° 0 mm 1 m/s 746 mmHg 96%
03:00 +18°C° 0 mm 1 m/s 746 mmHg 96%
04:00 +16°C° 0 mm 2 m/s 745 mmHg 97%
05:00 +17°C° 0 mm 2 m/s 745 mmHg 95%
06:00 +17°C° 0 mm 2 m/s 745 mmHg 94%
07:00 +18°C° 0 mm 1 m/s 745 mmHg 92%
08:00 +20°C° 0 mm 1 m/s 745 mmHg 84%
09:00 +22°C° 0 mm 1 m/s 745 mmHg 76%
10:00 +23°C° 0 mm 1 m/s 745 mmHg 68%
11:00 +25°C° 0 mm 2 m/s 745 mmHg 63%
12:00 +26°C° 0 mm 2 m/s 745 mmHg 58%
13:00 +27°C° 0 mm 2 m/s 744 mmHg 53%
14:00 +28°C° 0 mm 2 m/s 744 mmHg 51%
15:00 +28°C° 0 mm 2 m/s 744 mmHg 50%
16:00 +29°C° 0 mm 1 m/s 743 mmHg 48%
17:00 +27°C° 0 mm 1 m/s 743 mmHg 55%
18:00 +26°C° 0 mm 1 m/s 743 mmHg 61%
19:00 +25°C° 0 mm 1 m/s 743 mmHg 68%
20:00 +24°C° 0 mm 1 m/s 744 mmHg 72%
21:00 +22°C° 0 mm 1 m/s 744 mmHg 76%
22:00 +21°C° 0 mm 1 m/s 745 mmHg 79%
23:00 +20°C° 0.3 mm 1 m/s 745 mmHg 84%

6 August, Vineri

Timp Temperatura Precipitaţii Vânt Presiune Umiditate
00:00 +20°C° 0.3 mm 1 m/s 745 mmHg 88%
01:00 +18°C° 0.3 mm 2 m/s 745 mmHg 92%
02:00 +17°C° 0.1 mm 2 m/s 745 mmHg 93%
03:00 +18°C° 0.1 mm 1 m/s 745 mmHg 93%
04:00 +18°C° 0.1 mm 1 m/s 745 mmHg 94%
05:00 +18°C° 0 mm 1 m/s 746 mmHg 92%
06:00 +19°C° 0 mm 1 m/s 746 mmHg 90%
07:00 +19°C° 0 mm 1 m/s 746 mmHg 89%
08:00 +21°C° 0 mm 1 m/s 746 mmHg 82%
09:00 +23°C° 0 mm 1 m/s 746 mmHg 75%
10:00 +24°C° 0 mm 1 m/s 746 mmHg 68%
11:00 +26°C° 0 mm 1 m/s 746 mmHg 64%
12:00 +27°C° 0 mm 1 m/s 746 mmHg 60%
13:00 +28°C° 0 mm 1 m/s 746 mmHg 56%
14:00 +28°C° 0 mm 1 m/s 746 mmHg 54%
15:00 +29°C° 0 mm 1 m/s 745 mmHg 53%
16:00 +29°C° 0 mm 1 m/s 745 mmHg 51%
17:00 +28°C° 0 mm 1 m/s 745 mmHg 57%
18:00 +27°C° 0 mm 1 m/s 745 mmHg 63%
19:00 +26°C° 0 mm 1 m/s 745 mmHg 69%
20:00 +25°C° 0 mm 1 m/s 745 mmHg 72%
21:00 +24°C° 0 mm 1 m/s 746 mmHg 74%
22:00 +22°C° 0 mm 1 m/s 746 mmHg 76%
23:00 +22°C° 0 mm 1 m/s 746 mmHg 79%

7 August, Sâmbătă

Timp Temperatura Precipitaţii Vânt Presiune Umiditate
00:00 +21°C° 0 mm 1 m/s 747 mmHg 81%
01:00 +21°C° 0 mm 1 m/s 747 mmHg 83%
02:00 +21°C° 0 mm 1 m/s 747 mmHg 84%
03:00 +21°C° 0 mm 1 m/s 747 mmHg 84%
04:00 +20°C° 0 mm 1 m/s 747 mmHg 84%
05:00 +21°C° 0 mm 1 m/s 747 mmHg 83%
06:00 +21°C° 0 mm 1 m/s 747 mmHg 82%
07:00 +22°C° 0 mm 1 m/s 747 mmHg 81%
08:00 +23°C° 0 mm 1 m/s 747 mmHg 76%
09:00 +24°C° 0 mm 1 m/s 747 mmHg 71%
10:00 +26°C° 0 mm 1 m/s 748 mmHg 67%
11:00 +27°C° 0.1 mm 1 m/s 747 mmHg 64%
12:00 +28°C° 0.1 mm 1 m/s 747 mmHg 61%
13:00 +29°C° 0.1 mm 1 m/s 747 mmHg 58%
14:00 +29°C° 0.1 mm 1 m/s 747 mmHg 58%
15:00 +29°C° 0.1 mm 1 m/s 746 mmHg 58%
16:00 +29°C° 0.1 mm 1 m/s 746 mmHg 58%
17:00 +28°C° 0.2 mm 1 m/s 746 mmHg 65%
18:00 +26°C° 0.2 mm 2 m/s 746 mmHg 71%
19:00 +25°C° 0.2 mm 2 m/s 746 mmHg 77%
20:00 +25°C° 0 mm 2 m/s 747 mmHg 79%
21:00 +24°C° 0 mm 1 m/s 747 mmHg 81%
22:00 +23°C° 0 mm 1 m/s 747 mmHg 83%
23:00 +23°C° 0 mm 1 m/s 747 mmHg 84%

8 August, Duminică

Timp Temperatura Precipitaţii Vânt Presiune Umiditate
00:00 +22°C° 0 mm 1 m/s 748 mmHg 84%
01:00 +22°C° 0 mm 1 m/s 748 mmHg 85%
02:00 +22°C° 0 mm 1 m/s 748 mmHg 86%
03:00 +22°C° 0 mm 1 m/s 748 mmHg 87%
04:00 +21°C° 0 mm 1 m/s 748 mmHg 88%
05:00 +22°C° 0.1 mm 1 m/s 748 mmHg 87%
06:00 +22°C° 0.1 mm 1 m/s 748 mmHg 86%
07:00 +22°C° 0.1 mm 1 m/s 749 mmHg 86%
08:00 +24°C° 0 mm 1 m/s 749 mmHg 81%
09:00 +25°C° 0 mm 1 m/s 749 mmHg 76%
10:00 +26°C° 0 mm 1 m/s 749 mmHg 71%
11:00 +28°C° 0.1 mm 1 m/s 749 mmHg 66%
12:00 +29°C° 0.1 mm 1 m/s 749 mmHg 61%
13:00 +30°C° 0.1 mm 1 m/s 749 mmHg 57%
14:00 +30°C° 0.1 mm 1 m/s 749 mmHg 57%
15:00 +30°C° 0.1 mm 1 m/s 749 mmHg 57%
16:00 +30°C° 0.1 mm 2 m/s 749 mmHg 57%
17:00 +29°C° 0 mm 2 m/s 749 mmHg 62%
18:00 +28°C° 0 mm 2 m/s 749 mmHg 68%
19:00 +27°C° 0 mm 2 m/s 749 mmHg 74%
20:00 +25°C° 1.3 mm 2 m/s 750 mmHg 80%
21:00 +24°C° 1.3 mm 2 m/s 750 mmHg 86%
22:00 +21°C° 1.3 mm 2 m/s 751 mmHg 92%
23:00 +22°C° 1.2 mm 1 m/s 751 mmHg 93%
Arată mai mult

Formular de consimțământ

Meteoprog și furnizorii noștri de servicii pot stoca și accesa date personale, precum cookies, identificatori de dispozitiv sau alte tehnologii similare pe dispozitivul dumneavoastră și procesa astfel de date pentru a personaliza conținutul și reclamele, dar și pentru a oferi caracteristici de social media și pentru a analiza traficul.

  • Stocarea și/sau accesarea informațiilor pe dispozitivul dumneavoastră

    Cookies, identificatori de dispozitiv sau alte informații pot fi stocate sau accesate pe dispozitiv în scopurile indicate mai sus.

  • Reclame și conținut personalizat, evaluarea reclamelor și a conținutului, informații despre audiențe și dezvoltarea produselor

    Reclamele și conținutul pot fi personalizate pe baza unui profil. Pot fi adăugate date suplimentare pentru a personaliza mai bine reclamele și conținutul. Performanța reclamelor și conținutului poate fi măsurată. Pot fi obținute informații despre utilizatorii care au văzut reclamele și conținutul. Aceste date pot fi utilizate pentru a dezvolta sau îmbunătăți experiența utilizatorilor, sistemele și software-ul.

Dând clic pe ‘Sunt de acord’, permiteți utilizarea cookie-urilor menționate, a identificatorilor de dispozitiv, balizelor web sau altor tehnologii similare. Setările pot fi modificate din browser-ul dispozitivului dumneavoastră.

În anumite scopuri, interesele legitime pot prima asupra consimțământului. Puteți citi mai multe informații în acest sens în Politica privind Confidențialitatea Datelor și Cookie.